STARLINK-34262 (64688 NORAD) Tracking and Keplerian Element Data

This shows tracking and keplerian element data for the satellite.

Feedback or suggestion? Click here.




ElementValue
Catalog64688
NameSTARLINK-34262
Epoch Orbit2811
Epoch Day353.80351108
Epoch Year2025
RAAN138.0622
Inclination53.16
Eccentricity9.39E-05
Argument of Perigee56.5617
Mean Anonmoly303.5473
Mean Motion15.3019692
Decay Rate0.00018818
L11 64688U 25139AA 25353.80351108 .00018818 00000+0 64592-3 0 9990
L22 64688 53.1600 138.0622 0000939 56.5617 303.5473 15.30196920 28115



Live tracking and technical data element details for STARLINK-34262 (NORAD 64688). STARLINK-34262 can be tracked NOW for your location showing map with azimuth and elevation plus other details from your city location.







IsCatalogInMostPopularTable: catalog: 64688, numindb: 20
Update: records affected: 1



GetName: 64688 STARLINK-34262

Hit Count: updated at: Mon, 20 Apr 2026 09:36:35 GMT